Toronto, Ontario

12:35 PM EDT on April 26, 2017 (GMT -0400)
Toronto

Weather History for CYTZ - October, 2012

Change the Weather History Date:

Monday, October 1, 2012

  Actual Average Record
Temperature  
Mean Temperature 56 °F -  
Max Temperature 63 °F 56 °F 77 °F (2002)
Min Temperature 50 °F 44 °F 39 °F (2003)
Degree Days  
Heating Degree Days 8    
Growing Degree Days 6 (Base 50)    
Moisture  
Dew Point 50 °F    
Average Humidity 76    
Maximum Humidity 88    
Minimum Humidity 59    
Precipitation  
Precipitation 0.00 in 0.08 in - ()
Sea Level Pressure  
Sea Level Pressure 29.88 in    
Wind  
Wind Speed 7 mph ()    
Max Wind Speed 12 mph    
Max Gust Speed -    
Visibility 9.0 miles    
Events      
Averages and records for this station are not official NWS values.
T = Trace of Precipitation, MM = Missing Value Source: Averaged Metar Reports

Daily Weather History Graph

Daily Weather History Graph

Search for Another Location

Airport or City:

Trip Planner

Search our weather history database for the weather conditions in past years. The results will help you decide how hot, cold, wet, or windy it might be!

Date:

Astronomy

Oct. 01, 2012 Rise Set
Actual Time 7:15 AM EDT 6:57 PM EDT
Civil Twilight 6:47 AM EDT 7:26 PM EDT
Nautical Twilight 6:13 AM EDT 7:59 PM EDT
Astronomical Twilight 5:40 AM EDT 8:33 PM EDT
Moon 7:28 PM EDT (10/1) 8:47 AM EDT (10/1)
Length of Visible Light 12h 39m
Length of Day
11h 42m
Full, 98% of the Moon is Illuminated
Oct 1
Full
Oct 8
Last Quarter
Oct 15
New
Oct 21
First Quarter
Oct 29
Full

Hourly Weather History & Observations

Time (EDT) Temp. Dew Point Humidity Pressure Visibility Wind Dir Wind Speed Gust Speed Precip Events Conditions
12:00 AM 55.4 °F 46.4 °F 72% 29.88 in 9.0 mi WNW 8.1 mph - N/A   Overcast
1:00 AM 55.4 °F 46.4 °F 72% 29.87 in 9.0 mi West 8.1 mph - N/A   Overcast
2:00 AM 54 °F 48 °F 73% 29.86 in 10 mi WSW 10.4 mph - -   Overcast
2:00 AM 55.4 °F 48.2 °F 77% 29.86 in 9.0 mi West 9.2 mph - N/A   Overcast
3:00 AM 55.4 °F 48.2 °F 77% 29.85 in 9.0 mi West 8.1 mph - N/A   Overcast
4:00 AM 55.4 °F 48.2 °F 77% 29.84 in 9.0 mi West 9.2 mph - N/A   Overcast
5:00 AM 55.4 °F 48.2 °F 77% 29.84 in 9.0 mi West 9.2 mph - N/A   Overcast
6:00 AM 57.2 °F 48.2 °F 72% 29.84 in 9.0 mi WNW 6.9 mph - N/A   Overcast
7:00 AM 53.6 °F 48.2 °F 82% 29.86 in 9.0 mi West 5.8 mph - N/A   Clear
8:00 AM 54 °F 49 °F 77% 29.87 in 10 mi West 6.9 mph - -  
8:00 AM 53.6 °F 48.2 °F 82% 29.87 in 9.0 mi West 5.8 mph - N/A   Clear
9:00 AM 55.4 °F 50.0 °F 82% 29.89 in 9.0 mi WSW 6.9 mph - N/A   Clear
10:00 AM 62.6 °F 48.2 °F 59% 29.89 in 9.0 mi WNW 8.1 mph - N/A   Clear
10:39 AM 59.0 °F 51.8 °F 77% 29.89 in 9.0 mi SSW 11.5 mph - N/A   Scattered Clouds
11:00 AM 60.8 °F 50.0 °F 68% 29.89 in 9.0 mi SW 9.2 mph - N/A   Clear
12:00 PM 60.8 °F 51.8 °F 72% 29.89 in 9.0 mi SSW 10.4 mph - N/A   Scattered Clouds
1:00 PM 59.0 °F 51.8 °F 77% 29.88 in 9.0 mi South 11.5 mph - N/A   Mostly Cloudy
2:00 PM 59 °F 51 °F 66% 29.88 in 10 mi SSW 11.5 mph - -   Overcast
2:00 PM 59.0 °F 50.0 °F 72% 29.88 in 9.0 mi SSW 11.5 mph - N/A   Overcast
3:00 PM 59.0 °F 51.8 °F 77% 29.88 in 9.0 mi WSW 5.8 mph - N/A   Overcast
4:00 PM 60.8 °F 51.8 °F 72% 29.87 in 9.0 mi WSW 8.1 mph - N/A   Overcast
5:00 PM 60.8 °F 51.8 °F 72% 29.86 in 9.0 mi WSW 5.8 mph - N/A   Overcast
6:00 PM 59.0 °F 51.8 °F 77% 29.88 in 9.0 mi SW 5.8 mph - N/A   Partly Cloudy
7:00 PM 55.4 °F 51.8 °F 88% 29.88 in 9.0 mi Variable 2.3 mph - N/A   Clear
7:10 PM 57.2 °F 51.8 °F 82% 29.88 in 5.0 mi Calm Calm - N/A   Haze
7:16 PM 57.2 °F 51.8 °F 82% 29.88 in 8.0 mi Variable 2.3 mph - N/A   Partly Cloudy
8:00 PM 56 °F 51 °F 77% 29.91 in 10 mi West 2.3 mph - -  
8:00 PM 57.2 °F 51.8 °F 82% 29.91 in 9.0 mi Variable 2.3 mph - N/A   Mostly Cloudy
9:00 PM 57.2 °F 50.0 °F 77% 29.91 in 9.0 mi West 3.5 mph - N/A   Partly Cloudy
11:00 PM 53.6 °F 48.2 °F 82% 29.90 in 9.0 mi WNW 2.3 mph - N/A   Clear